Tracking 29068 objects as of 20-Jul-2024
HD Live streaming from Space Station
objects crossing your sky now

FENGYUN 1B

Track FENGYUN 1B now!
10-day predictions
FENGYUN 1B is classified as:


NORAD ID: 20788
Int'l Code: 1990-081A
Perigee: 878.3 km
Apogee: 903.0 km
Inclination: 98.9 °
Period: 102.6 minutes
Semi major axis: 7261 km
RCS: 3.0595 m2 (large)
Launch date: September 3, 1990
Source: People's Republic of China (PRC)
Launch site: Taiyaun Space Center, China (TSC)
Your satellite tracking list
Your tracking list is empty




NASA's NSSDC Master Catalog

Two Line Element Set (TLE):
1 20788U 90081A   24201.58265264  .00000236  00000-0  17982-3 0  9991
2 20788  98.8895 183.6433 0016973 113.3892 246.9062 14.02977014733721
Source of the keplerian elements: AFSPC